Simultaneous Nadir Overpasses (SNOs) Predictions

Prediction of SNOs between GOES-15 and LANDSAT-8 Satellite Orbit:

Table of predicted SNOs for the next 14.0 days since TLE Epoch: 5/7/2022
Index Date Time (GOES-15) GOES-15 Lat,Lon LANDSAT-8 Lat,Lon Distance(km) Time Diff (sec)
1 05/07/2022 07:00:37 0.18,-127.97 -0.62,-131.70 424.35 80
2 05/09/2022 06:48:27 0.18,-127.90 0.02,-128.75 95.31 80
3 05/11/2022 06:33:36 0.19,-127.84 0.61,-125.78 233.62 80
4 05/11/2022 18:54:52 -0.18,-127.87 0.47,-130.94 349.34 80
5 05/13/2022 18:42:41 -0.19,-127.80 -0.13,-127.98 20.83 80
6 05/15/2022 18:33:10 -0.19,-127.72 -0.75,-125.02 307.08 80
7 05/16/2022 06:54:33 0.18,-127.66 -0.37,-130.21 290.43 80
8 05/18/2022 06:39:43 0.19,-127.57 0.26,-127.25 36.19 80
9 05/20/2022 06:27:32 0.20,-127.47 0.90,-124.29 362.17 80
10 05/20/2022 18:48:46 -0.19,-127.49 0.24,-129.44 221.84 80
